[[{"header":{"parameterUnit":"m.s-1","parameterCategory":1,"la1":30.2991,"la2":30.254,"lo1":-89.0895,"lo2":-89.0444,"dy":0.0017,"dx":0.0017,"nx":28,"ny":28,"refTime":"2025-04-19T03:00:00:Z","depth":0,"parameterNumber":2,"parameterNumberName":"U-component_of_WINDS"},"data":[0,0,0,0,0,0,0,0,0,0,0,0,0,0,0,0,0,0,0,0,0,0,0,0,0,0,0,0,0,0,0,0,0,0,0,0,0,0,0,0,0,0,0,0,0,0,0,0,0,0,0,0,0,0,0,0,0,0,-5.6779,-5.678,0,-5.6832,-5.6833,-5.6833,-5.6799,-5.6798,-5.6796,-5.6795,-5.6845,-5.6848,-5.6851,0,0,0,0,0,0,0,0,0,0,0,0,0,-5.6647,-5.665,-5.6779,-5.678,-5.6781,-5.6832,-5.6833,-5.6834,-5.6799,-5.6798,-5.6796,-5.6794,-5.6844,-5.6847,-5.6851,0,0,0,0,0,0,0,0,0,0,0,0,0,-5.6703,-5.665,-5.6779,-5.677,-5.677,-5.6832,-5.6833,-5.6834,-5.68,-5.6797,-5.6795,-5.6793,-5.6843,-5.6847,-5.6851,-5.6925,0,0,-5.6864,-5.6866,0,0,0,0,0,0,0,0,-5.6699,-5.6707,-5.6771,-5.6771,-5.677,-5.6807,-5.6805,-5.6864,-5.68,-5.6788,-5.6794,-5.6792,-5.6834,-5.6839,-5.6854,-5.6927,-5.6929,-5.6865,-5.6867,-5.6869,-5.687,0,0,0,0,0,0,0,-5.6696,-5.6705,-5.68,-5.6772,-5.6772,-5.6763,-5.6768,-5.6816,-5.6824,-5.6789,-5.6787,-5.6794,-5.6833,-5.685,-5.6855,-5.693,-5.6864,-5.6868,-5.6871,-5.6872,-5.7067,-5.7069,0,0,0,0,0,0,-5.6693,-5.6702,-5.6798,-5.6802,-5.6729,-5.6767,-5.6773,-5.6797,-5.6823,-5.6825,-5.6796,-5.6792,-5.6844,-5.685,-5.6856,-5.6943,-5.6869,-5.6873,-5.6875,-5.7064,-5.7067,-5.707,0,0,0,0,0,0,-5.669,-5.6702,-5.6796,-5.6751,-5.6763,-5.6772,-5.68,-5.68,-5.6816,-5.6828,-5.6829,-5.6811,-5.6842,-5.685,-5.6908,-5.6944,-5.6875,-5.6879,-5.7061,-5.7065,-5.7069,-5.7118,0,0,0,0,0,0,-5.6687,-5.6701,-5.6729,-5.6752,-5.6765,-5.6848,-5.6802,-5.6802,-5.6824,-5.6819,-5.6843,-5.6844,-5.6841,-5.6902,-5.6912,-5.6949,-5.6882,-5.7057,-5.7063,-5.7067,-5.7113,-5.7123,-5.7131,0,0,0,0,0,-5.6682,-5.674,-5.6731,-5.6742,-5.6801,-5.685,-5.6857,-5.6853,-5.6827,-5.6855,-5.6863,-5.6843,-5.694,-5.6908,-5.692,-5.6958,-5.7055,-5.7061,-5.7067,-5.7108,-5.7121,-5.7131,0,0,0,0,0,0,-5.6718,-5.6743,-5.6732,-5.68,-5.6824,-5.6844,-5.6879,-5.6866,-5.6897,-5.6891,-5.6884,-5.689,-5.695,-5.696,-5.6925,-5.7031,-5.6993,-5.7002,-5.7021,-5.7033,-5.7042,-5.7036,-5.6885,0,0,0,0,0,-5.6735,-5.6774,-5.6793,-5.685,-5.6863,-5.6869,-5.6891,-5.6886,-5.6909,-5.6919,-5.6931,-5.6953,-5.6989,-5.7012,-5.7045,-5.7116,-5.712,-5.7148,-5.7157,-5.7165,-5.7171,-5.7209,-5.7221,-5.7089,-5.7089,-5.7089,0,0,-5.6768,-5.6786,-5.6811,-5.6858,-5.6876,-5.6915,-5.6877,-5.6921,-5.695,-5.6925,-5.698,-5.699,-5.7015,-5.708,-5.7109,-5.709,-5.7209,-5.7172,-5.7178,-5.718,-5.7216,-5.7228,-5.7239,-5.7093,-5.7093,-5.7092,0,0,-5.6848,-5.6867,-5.6916,-5.6936,-5.6964,-5.6968,-5.6981,-5.7004,-5.701,-5.7067,-5.7049,-5.7084,-5.7145,-5.7163,-5.7181,-5.7272,-5.7255,-5.7283,-5.733,-5.7367,-5.7377,-5.7386,-5.7417,-5.7428,-5.729,-5.7291,-5.7291,0,-5.6885,-5.6944,-5.6943,-5.6988,-5.7009,-5.6992,-5.7042,-5.7061,-5.7097,-5.7112,-5.7092,-5.7169,-5.7185,-5.7253,-5.7276,-5.7292,-5.7304,-5.7278,-5.7376,-5.7385,-5.7394,-5.7423,-5.7435,-5.7294,-5.7293,-5.7293,-5.7293,0,-5.6988,-5.703,-5.7067,-5.7105,-5.7131,-5.7178,-5.7184,-5.721,-5.7205,-5.7212,-5.7269,-5.7288,-5.7325,-5.7342,-5.7336,-5.741,-5.7397,-5.7377,-5.7338,-5.7409,-5.7436,-5.7448,-5.7298,-5.7297,-5.7296,-5.7295,0,0,-5.7087,-5.7127,-5.714,-5.7158,-5.7189,-5.7221,-5.7269,-5.7306,-5.7328,-5.7356,-5.7394,-5.7449,-5.7431,-5.7451,-5.7448,-5.7481,-5.755,-5.7456,-5.7457,-5.7471,-5.7631,-5.7644,-5.7657,-5.7541,-5.7543,-5.7545,-5.7628,0,-5.7167,-5.725,-5.7252,-5.7328,-5.7366,-5.7352,-5.7393,-5.7417,-5.7426,-5.7459,-5.7469,-5.7506,-5.7481,-5.7493,-5.7525,-5.7535,-5.7582,-5.753,-5.7575,-5.7576,-5.7565,-5.7671,-5.7684,-5.7761,-5.7639,-5.7641,-5.7642,0,-5.727,-5.7303,-5.7383,-5.741,-5.7426,-5.7463,-5.7498,-5.7532,-5.7559,-5.7563,-5.7587,-5.758,-5.7628,-5.7592,-5.7657,-5.7621,-5.7641,-5.7649,-5.7652,-5.7653,-5.7611,-5.7672,-5.7786,-5.7797,-5.7659,-5.7658,-5.7657,0,-5.7332,-5.7396,-5.7452,-5.7468,-5.7502,-5.7528,-5.7543,-5.7568,-5.7591,-5.7623,-5.7638,-5.7674,-5.7693,-5.7721,-5.7724,-5.7698,-5.779,-5.7754,-5.7793,-5.7793,-5.7809,-5.7807,-5.7925,-5.7828,-5.7828,-5.7827,-5.7827,0,-5.7419,-5.7467,-5.7481,-5.7514,-5.7569,-5.7572,-5.7626,-5.7639,-5.7662,-5.7698,-5.7689,-5.7723,-5.7726,-5.7761,-5.7764,-5.7817,-5.7827,-5.783,-5.783,-5.7829,-5.7828,-5.7838,-5.7832,-5.783,-5.783,-5.7829,-5.7829,0,-5.7495,-5.7506,-5.7566,-5.7594,-5.7603,-5.7641,-5.7665,-5.7698,-5.7708,-5.7753,-5.7764,-5.7779,-5.782,-5.7827,-5.7875,-5.7877,-5.794,-5.7935,-5.793,-5.7928,-5.7966,-5.7961,-5.8091,-5.8108,-5.8003,-5.8004,-5.8005,0,-5.7547,-5.7585,-5.7619,-5.7643,-5.766,-5.7699,-5.7723,-5.7729,-5.7754,-5.7789,-5.7817,-5.7858,-5.789,-5.7957,-5.7971,-5.8008,-5.8002,-5.8046,-5.8007,-5.8005,-5.7999,-5.7996,-5.7999,-5.8051,-5.8052,-5.8053,-5.8054,0,-5.7639,-5.7644,-5.7679,-5.7718,-5.7748,-5.7778,-5.7807,-5.7827,-5.7836,-5.7866,-5.7908,-5.7934,-5.7984,-5.8024,-5.8061,-5.8076,-5.8066,-5.8067,-5.8077,-5.8075,-5.8069,-5.807,-5.7947,-5.8062,-5.8062,-5.8061,-5.8061,-5.806,-5.7703,-5.7736,-5.7765,-5.7806,-5.7829,-5.7856,-5.7888,-5.7903,-5.7939,-5.7981,-5.7983,-5.8029,-5.8057,-5.8107,-5.8125,-5.8161,-5.8146,-5.8162,-5.8165,-5.8168,-5.8171,-5.8067,-5.8168,-5.8168,-5.8167,-5.8167,-5.8167,0,-5.7792,-5.7811,-5.7849,-5.789,-5.7923,-5.7914,-5.7946,-5.7973,-5.8014,-5.8042,-5.8075,-5.8124,-5.8164,-5.8183,-5.8222,-5.8247,-5.8243,-5.8257,-5.8253,-5.8256,-5.8182,-5.8168,-5.8259,-5.8259,-5.8259,-5.8259,-5.8259,-5.8259,-5.7842,-5.7897,-5.7905,-5.7971,-5.799,-5.8036,-5.8055,-5.8081,-5.8103,-5.8159,-5.8192,-5.8205,-5.823,-5.8271,-5.8307,-5.8311,-5.8325,-5.834,-5.8342,-5.8271,-5.8262,-5.8252,-5.8239,-5.8343,-5.8343,-5.8412,-5.8413,-5.8413]},{"header":{"parameterUnit":"m.s-1","parameterCategory":1,"la1":30.2991,"la2":30.254,"lo1":-89.0895,"lo2":-89.0444,"dy":0.0017,"dx":0.0017,"nx":28,"ny":28,"refTime":"2025-04-19T03:00:00:Z","depth":0,"parameterNumber":3,"parameterNumberName":"V-component_of_WINDS"},"data":[0,0,0,0,0,0,0,0,0,0,0,0,0,0,0,0,0,0,0,0,0,0,0,0,0,0,0,0,0,0,0,0,0,0,0,0,0,0,0,0,0,0,0,0,0,0,0,0,0,0,0,0,0,0,0,0,0,0,4.2102,4.2102,0,4.2069,4.2068,4.2068,4.2055,4.2055,4.2055,4.2055,4.2014,4.2013,4.2012,0,0,0,0,0,0,0,0,0,0,0,0,0,4.2149,4.2149,4.2102,4.2102,4.2101,4.2069,4.2068,4.2068,4.2055,4.2055,4.2055,4.2055,4.2014,4.2013,4.2011,0,0,0,0,0,0,0,0,0,0,0,0,0,4.2123,4.2148,4.2102,4.2091,4.209,4.2069,4.2068,4.2068,4.2055,4.2055,4.2055,4.2055,4.2015,4.2013,4.2011,4.1997,0,0,4.2006,4.2005,0,0,0,0,0,0,0,0,4.2125,4.2122,4.2093,4.2092,4.209,4.2066,4.207,4.2044,4.2055,4.2068,4.2055,4.2055,4.2031,4.2028,4.2021,4.1995,4.1993,4.2006,4.2004,4.2004,4.2003,0,0,0,0,0,0,0,4.2127,4.2123,4.2089,4.2093,4.2091,4.2086,4.2082,4.2065,4.2048,4.2067,4.2066,4.2062,4.203,4.2022,4.202,4.1992,4.2006,4.2004,4.2003,4.2002,4.1954,4.1954,0,0,0,0,0,0,4.2131,4.2125,4.209,4.2088,4.2109,4.2085,4.2081,4.2074,4.2049,4.2045,4.2062,4.2062,4.2025,4.2022,4.2018,4.2001,4.2004,4.2002,4.2001,4.1954,4.1954,4.1954,0,0,0,0,0,0,4.2132,4.2128,4.2091,4.2106,4.2101,4.2084,4.2076,4.2073,4.2066,4.2045,4.2042,4.2058,4.2025,4.2021,4.2003,4.1999,4.2001,4.2,4.1955,4.1954,4.1954,4.1965,0,0,0,0,0,0,4.2134,4.2129,4.2124,4.2106,4.21,4.2078,4.2075,4.2072,4.2063,4.2062,4.204,4.2037,4.2025,4.2006,4.2001,4.1997,4.1998,4.1955,4.1955,4.1954,4.1965,4.1965,4.1965,0,0,0,0,0,4.2135,4.2127,4.2124,4.212,4.2095,4.2078,4.2074,4.2063,4.2063,4.2058,4.2045,4.2038,4.2,4.2004,4.1999,4.1994,4.1955,4.1955,4.1954,4.1965,4.1965,4.1965,0,0,0,0,0,0,4.2142,4.2124,4.2121,4.2107,4.2094,4.2076,4.2069,4.2063,4.2049,4.2049,4.2033,4.2028,4.2012,4.2001,4.2005,4.1979,4.1977,4.1976,4.1987,4.1987,4.1987,4.199,4.1997,0,0,0,0,0,4.2143,4.2133,4.2116,4.2105,4.21,4.2085,4.2078,4.207,4.2056,4.205,4.2036,4.202,4.2005,4.1995,4.198,4.1963,4.1958,4.1957,4.1957,4.1958,4.1956,4.1948,4.1947,4.1953,4.1953,4.1953,0,0,4.2142,4.2131,4.2125,4.2107,4.2096,4.2085,4.2081,4.2068,4.206,4.2047,4.2031,4.202,4.2001,4.1985,4.1976,4.1975,4.1954,4.1957,4.1957,4.1956,4.1947,4.1947,4.1946,4.1952,4.1952,4.1952,0,0,4.2136,4.2127,4.2117,4.2108,4.2093,4.2084,4.2082,4.2064,4.2058,4.2041,4.2032,4.202,4.1994,4.1982,4.1973,4.1964,4.1957,4.1959,4.196,4.1952,4.1951,4.1951,4.1948,4.1947,4.1958,4.1958,4.1958,0,4.2137,4.2122,4.2112,4.2102,4.2093,4.2085,4.2074,4.2064,4.2044,4.2038,4.2038,4.2006,4.1993,4.1974,4.1972,4.1964,4.1961,4.1961,4.1952,4.1952,4.1951,4.1949,4.1948,4.1958,4.1958,4.1958,4.1958,0,4.2124,4.2113,4.2107,4.2091,4.2082,4.2071,4.2059,4.2051,4.2045,4.2035,4.2019,4.2003,4.1985,4.198,4.1972,4.196,4.196,4.1956,4.1954,4.1951,4.1949,4.1948,4.1959,4.1959,4.1959,4.1959,0,0,4.212,4.2101,4.2099,4.2092,4.2076,4.2067,4.2055,4.2041,4.2034,4.2021,4.201,4.199,4.1987,4.1976,4.1967,4.196,4.1955,4.1957,4.1956,4.1957,4.1941,4.1944,4.1943,4.195,4.195,4.195,4.1943,0,4.2113,4.2095,4.2086,4.2071,4.2061,4.2053,4.2043,4.2031,4.2023,4.2011,4.2,4.1987,4.1984,4.1977,4.197,4.1957,4.1951,4.1957,4.1939,4.1939,4.1945,4.1942,4.1945,4.1939,4.1941,4.1941,4.1941,0,4.2101,4.2091,4.2075,4.2062,4.2057,4.2049,4.2035,4.2025,4.2011,4.2005,4.1995,4.1987,4.1973,4.1973,4.1954,4.1958,4.195,4.1943,4.1943,4.194,4.194,4.194,4.1936,4.1936,4.1939,4.1939,4.1939,0,4.2101,4.2083,4.2072,4.2066,4.205,4.2044,4.2037,4.2023,4.2016,4.2003,4.1998,4.1983,4.1975,4.1963,4.195,4.1951,4.1933,4.1931,4.1927,4.1927,4.1923,4.1924,4.1919,4.1918,4.1918,4.1918,4.1918,0,4.2093,4.2084,4.2072,4.2065,4.2055,4.2045,4.2034,4.2026,4.2015,4.2005,4.1996,4.1987,4.1972,4.196,4.195,4.1936,4.1932,4.1926,4.1924,4.1928,4.1928,4.1922,4.1922,4.1918,4.1918,4.1918,4.1918,0,4.2092,4.2083,4.2071,4.2057,4.2053,4.2046,4.2034,4.2026,4.2018,4.2006,4.2002,4.1988,4.1974,4.1962,4.1942,4.1936,4.1922,4.1918,4.1927,4.1926,4.1923,4.1924,4.1914,4.1913,4.1913,4.1913,4.1913,0,4.2088,4.2081,4.2068,4.2062,4.2055,4.2045,4.2038,4.2028,4.2021,4.2006,4.2,4.1986,4.1975,4.1953,4.194,4.1925,4.1921,4.1919,4.1919,4.1923,4.1922,4.1923,4.1922,4.1919,4.1919,4.1919,4.1919,0,4.2082,4.2078,4.2069,4.2059,4.2051,4.2042,4.2032,4.2027,4.2015,4.2007,4.1994,4.1986,4.1968,4.1954,4.1939,4.1929,4.1922,4.192,4.1918,4.1922,4.1928,4.1925,4.1929,4.192,4.192,4.192,4.192,4.192,4.2079,4.2073,4.2063,4.2054,4.2046,4.2037,4.203,4.2022,4.2012,4.1998,4.1992,4.198,4.1966,4.1945,4.1936,4.1925,4.1923,4.1921,4.192,4.192,4.1921,4.193,4.1922,4.1922,4.1922,4.1922,4.1922,0,4.2073,4.2067,4.2058,4.2046,4.2039,4.2035,4.2025,4.2018,4.2008,4.1997,4.1987,4.1973,4.196,4.1947,4.1933,4.1926,4.1923,4.1923,4.1923,4.1922,4.1923,4.1926,4.1926,4.1926,4.1926,4.1926,4.1926,4.1926,4.2069,4.2059,4.2055,4.2041,4.2035,4.2024,4.2018,4.201,4.2002,4.1987,4.1978,4.197,4.1958,4.1944,4.1932,4.1928,4.1923,4.1925,4.192,4.1921,4.1921,4.1921,4.1924,4.1924,4.1924,4.1919,4.1919,4.1919]}]]